BREEZE-M DEB

Satellite information

Favourite Embed

Satellite Type and Status

DEBRISIN ORBIT

Key statistics

Satellite BREEZE-M DEB at a glance.

Uptime

6484

Days in orbit

Revolutions

≈ 3.8

Per day

Orbit

MEO

Medium Earth Orbit

Inclination

49.0

Latest

Satellite identification and parameters

Extended collection of information and parameters for BREEZE-M DEB.

Object identification

Identified? True

Debris? True

Object name: BREEZE-M DEB

International designator: 2008-011AU

Object number (NORAD): 38597

Object ID (CCSDS): 38597

Country: COMMONWEALTH OF INDEPENDENT STATES (CIS)

Current information (Y/N): Y

RCS size: MEDIUM

Orbital parameters

Period: 378.48 minutes

Inclination: 48.9628 deg

SMA: 17332.273 km

Apoapsis: 21365.336 km

Periapsis: 542.939 km

RAAN: 52.5033 deg

Eccentricy: 0.60068284

Argument of periapsis: 116.0041 deg

Mean anomaly: 316.3097 deg

Mean motion: 3.80469194 rev/day

Mean motion (dot): 0.00002293 rev/day2

B* drag term: 0.0091503856 1/REarth

Two-line elements (TLE)

Creation date: Dec. 14, 2025, 3:07 a.m.

Reference frame: TEME

Reference center: EARTH

Epoch: Dec. 13, 2025, 9 a.m. UTC

TLE line 0: 0 BREEZE-M DEB

TLE line 1: 1 38597U 08011AU 25347.37507866 .00002293 00000-0 91504-2 0 9992

TLE line 2: 2 38597 48.9628 52.5033 6006828 116.0041 316.3097 3.80469194 24900

Live tracking on map

Real-time ground track for satellite BREEZE-M DEB.

In-orbit conjunctions

A list of the most updated potential collisions computed for object BREEZE-M DEB.

Target Orbit TCA Probability of collision Miss distance Type
BREEZE-M R/B OTHER 2025-12-10 04:56:10 TBA 3483.0 (m) ROCKET BODY
COSMOS 1555 (GLONASS) MEO 2025-08-10 07:54:23 TBA 2117.0 (m) PAYLOAD

Associated space launch

American communications satellite scheduled to operate in GEO, but was left stranded in a too low transfer orbit due to a launch vehicle failure. It was sold to the US Department of Defense and operated from geosynchronous orbit.

BREEZE-M DEB was lifted into orbit during the mission ‘Proton-M Briz-M | AMC 14’, on board a Proton-M Briz-M space rocket.

The launch took place on March 14, 2008, 11:18 p.m. from 200/39 (200L).

For more information about the launch, click the button.

Launch to space Proton-M Briz-M | AMC 14
Proton-M Briz-M | AMC 14

Agency: N/A

Status: Launch Failure

Launch date: March 14, 2008, 11:18 p.m. UTC

Rocket: Proton-M Briz-M

Launch pad: 200/39 (200L)

Location: Baikonur Cosmodrome, Republic of Kazakhstan

...

Latest news about this satellite

There are no fresh news available about this satellite. Check back as we update our databases every day.


Newsletter sign-up

Weekly statistics, charts and insights to help you stay on top of the space industry.